KD0RXN-4 Weather Reports


Display with metric or nautical units.
time (UTC)temp
F
wind
direction
speed
MPH
gust
MPH
rain 1hr
in
rain 24hr
in
rain mn
in
humidity
%
barometer
mb
20260506005018 46 360 0.0 1.0 0.00 0.19 0.19 89 1009.0
20260506004028 46 34 0.0 1.0 0.00 0.19 0.19 89 1009.2
20260506003533 47 72 0.0 1.0 0.00 0.19 0.19 89 1009.0
20260506003019 46 32 0.0 2.0 0.01 0.19 0.19 89 1008.9
20260506002522 46 59 0.0 2.0 0.01 0.19 0.19 89 1008.6
20260506002029 46 48 0.0 2.0 0.01 0.19 0.19 89 1008.8
20260506001554 46 70 0.0 2.0 0.01 0.19 0.19 89 1008.7
20260506001059 46 91 0.0 4.0 0.01 0.19 0.19 89 1008.7
20260506000542 47 75 0.0 4.0 0.01 0.19 0.19 89 1008.7
20260506000047 47 36 0.0 2.0 0.01 0.19 0.19 88 1008.7
20260505235530 47 46 0.0 0.0 0.01 0.19 0.19 88 1008.7
20260505235036 47 44 0.0 0.0 0.01 0.19 0.19 88 1008.8
20260505234542 47 73 0.0 0.0 0.01 0.19 0.19 88 1008.4
20260505234026 47 51 0.0 1.0 0.01 0.19 0.19 88 1008.7
20260505233535 47 36 0.0 1.0 0.01 0.19 0.19 88 1008.5
20260505233041 47 40 0.0 1.0 0.00 0.18 0.18 88 1008.5
20260505232524 47 36 0.0 1.0 0.00 0.18 0.18 88 1008.5
20260505232030 47 93 0.0 2.0 0.00 0.18 0.18 88 1008.5
20260505231534 47 21 0.0 2.0 0.00 0.18 0.18 87 1008.5
20260505231020 47 83 0.0 2.0 0.00 0.18 0.18 87 1008.2
20260505230526 47 55 0.0 2.0 0.00 0.18 0.18 87 1008.4
20260505230031 47 63 0.0 1.0 0.00 0.18 0.18 87 1008.3
20260505225535 47 53 0.0 1.0 0.00 0.18 0.18 87 1008.3
20260505225020 47 67 0.0 2.0 0.00 0.18 0.18 87 1008.5
20260505224544 47 77 0.0 3.0 0.00 0.18 0.18 87 1008.6
20260505224030 47 44 0.0 3.0 0.01 0.18 0.18 86 1008.6
20260505223519 47 298 0.0 3.0 0.01 0.18 0.18 86 1008.4
20260505223024 47 70 0.0 3.0 0.01 0.18 0.18 86 1008.4
20260505222528 47 40 0.0 9.0 0.02 0.18 0.18 85 1008.1
20260505222035 47 64 0.0 9.0 0.02 0.18 0.18 85 1008.3
20260505221520 47 328 0.0 5.0 0.02 0.18 0.18 84 1008.5
20260505221025 47 53 0.0 5.0 0.02 0.18 0.18 84 1008.4
20260505220530 47 48 0.0 3.0 0.02 0.18 0.18 85 1008.3
20260505220036 47 35 0.0 2.0 0.02 0.18 0.18 84 1008.6
20260505215521 48 55 0.0 1.0 0.02 0.18 0.18 85 1008.5
20260505215047 48 34 0.0 2.0 0.02 0.18 0.18 84 1008.6
20260505214531 48 84 0.0 2.0 0.02 0.18 0.18 84 1008.4
20260505214021 48 24 0.0 2.0 0.01 0.17 0.17 84 1008.5
20260505213526 48 49 0.0 2.0 0.01 0.17 0.17 83 1008.3
20260505213050 48 71 0.0 4.0 0.01 0.17 0.17 83 1008.2
20260505212534 48 17 0.0 5.0 0.00 0.16 0.16 82 1008.3
20260505212018 48 38 0.0 4.0 0.00 0.16 0.16 81 1008.4
20260505211524 48 54 0.0 3.0 0.00 0.16 0.16 82 1008.4
20260505211028 49 10 0.0 2.0 0.02 0.16 0.16 83 1008.2
20260505210532 49 30 0.0 3.0 0.03 0.16 0.16 82 1008.3
20260505210038 49 93 0.0 3.0 0.03 0.16 0.16 82 1008.4
20260505205523 49 28 0.0 3.0 0.03 0.16 0.16 82 1008.1
20260505205028 49 27 0.0 3.0 0.03 0.16 0.16 82 1008.2
20260505204537 49 17 0.0 1.0 0.03 0.16 0.16 82 1008.2
20260505204044 49 44 0.0 1.0 0.03 0.16 0.16 82 1008.4
20260505203528 49 44 0.0 2.0 0.03 0.16 0.16 81 1008.3
20260505203053 49 35 0.0 2.0 0.03 0.16 0.16 81 1008.1
20260505202518 50 56 0.0 6.0 0.03 0.16 0.16 80 1008.0
20260505202043 50 38 0.0 6.0 0.03 0.16 0.16 78 1008.0
20260505201526 51 21 0.0 4.0 0.03 0.16 0.16 76 1008.0
20260505201031 51 41 0.0 8.0 0.01 0.14 0.14 73 1008.1
20260505200536 51 360 1.0 8.0 0.00 0.13 0.13 70 1008.2
20260505200021 51 63 0.0 6.0 0.00 0.13 0.13 70 1007.9
20260505195527 52 43 0.0 6.0 0.00 0.13 0.13 69 1007.9
20260505195032 52 85 0.0 6.0 0.00 0.13 0.13 68 1007.8
20260505194535 51 40 0.0 7.0 0.00 0.13 0.13 68 1007.8
20260505194024 51 115 2.0 7.0 0.00 0.13 0.13 67 1007.7
20260505193529 52 76 1.0 9.0 0.00 0.13 0.13 66 1008.0
20260505193035 52 53 1.0 12.0 0.00 0.13 0.13 66 1007.8
20260505192521 52 67 2.0 12.0 0.00 0.13 0.13 66 1007.8
20260505192027 52 19 0.0 7.0 0.00 0.13 0.13 68 1007.6
20260505191553 52 33 0.0 3.0 0.00 0.13 0.13 69 1007.8
20260505191037 52 62 0.0 10.0 0.00 0.13 0.13 69 1007.8
20260505190542 52 22 1.0 10.0 0.00 0.13 0.13 69 1007.7
20260505190046 52 34 1.0 6.0 0.00 0.13 0.13 69 1008.0
20260505185531 52 82 1.0 9.0 0.00 0.13 0.13 68 1008.1
20260505185055 52 22 1.0 9.0 0.00 0.13 0.13 68 1008.1
20260505184519 52 309 0.0 11.0 0.00 0.13 0.13 70 1008.2
20260505184024 52 22 2.0 10.0 0.00 0.13 0.13 69 1008.0
20260505183529 52 61 1.0 11.0 0.00 0.13 0.13 69 1007.8
20260505183018 53 32 2.0 15.0 0.00 0.13 0.13 68 1007.9
20260505182523 53 26 1.0 15.0 0.00 0.13 0.13 68 1007.7
20260505182027 53 22 1.0 11.0 0.00 0.13 0.13 70 1007.7
20260505181532 52 267 1.0 13.0 0.00 0.13 0.13 72 1007.7
20260505181037 52 74 2.0 13.0 0.00 0.13 0.13 71 1007.7
20260505180521 52 78 1.0 12.0 0.00 0.13 0.13 73 1007.7
20260505180047 52 76 2.0 12.0 0.00 0.13 0.13 75 1007.7
20260505175531 52 67 1.0 9.0 0.00 0.13 0.13 76 1007.8
20260505175036 52 55 1.0 9.0 0.00 0.13 0.13 77 1007.6
20260505174522 52 67 1.0 9.0 0.00 0.13 0.13 77 1007.6
20260505174026 52 92 1.0 9.0 0.00 0.13 0.13 77 1007.9
20260505173536 52 31 0.0 5.0 0.00 0.13 0.13 78 1008.1
20260505173021 52 49 0.0 2.0 0.00 0.13 0.13 79 1008.0
20260505172526 52 37 0.0 2.0 0.00 0.13 0.13 79 1008.0
20260505172052 52 350 0.0 1.0 0.00 0.13 0.13 80 1007.8
20260505171556 52 64 0.0 2.0 0.00 0.13 0.13 80 1007.8
20260505171040 52 56 0.0 3.0 0.00 0.13 0.13 80 1008.0
20260505170525 52 50 0.0 8.0 0.00 0.13 0.13 79 1007.9
20260505170032 52 71 1.0 8.0 0.00 0.13 0.13 79 1007.6
20260505165536 53 52 0.0 3.0 0.00 0.13 0.13 80 1007.6
20260505165020 53 57 0.0 3.0 0.00 0.13 0.13 82 1007.4
20260505164525 52 72 1.0 3.0 0.00 0.13 0.13 82 1007.2
20260505164030 52 39 0.0 9.0 0.03 0.13 0.13 82 1007.1
20260505163521 53 65 1.0 9.0 0.11 0.13 0.13 83 1007.1
20260505163027 52 36 0.0 6.0 0.13 0.13 0.13 84 1007.0
20260505162533 52 48 1.0 6.0 0.13 0.13 0.13 84 1007.0
20260505162038 52 24 0.0 5.0 0.13 0.13 0.13 86 1007.1
20260505161523 52 57 0.0 8.0 0.13 0.13 0.13 85 1007.4
20260505161030 52 56 0.0 2.0 0.13 0.13 0.13 85 1007.5
20260505160557 51 56 0.0 5.0 0.13 0.13 0.13 85 1007.4
20260505153023 54 20 0.0 1.0 0.00 0.00 0.00 74 1008.7
20260505152549 54 31 0.0 1.0 0.00 0.00 0.00 74 1008.2
20260505152035 54 41 0.0 2.0 0.00 0.00 0.00 74 1008.1
20260505151521 54 59 0.0 1.0 0.00 0.00 0.00 75 1007.7
20260505151027 54 38 0.0 5.0 0.00 0.00 0.00 75 1007.4
20260505150534 54 57 1.0 9.0 0.00 0.00 0.00 74 1007.0
20260505140529 53 70 0.0 8.0 0.00 0.00 0.00 80 1006.6
20260505125037 53 58 1.0 6.0 0.00 0.00 0.00 83 1006.1
20260505124523 52 87 1.0 10.0 0.00 0.00 0.00 84 1005.9
20260505124031 52 38 3.0 10.0 0.00 0.00 0.00 83 1005.9
20260505123536 53 63 1.0 9.0 0.00 0.00 0.00 83 1005.9
20260505123023 53 55 1.0 4.0 0.00 0.00 0.00 83 1005.9
20260505122528 53 46 0.0 3.0 0.00 0.00 0.00 83 1005.7
20260505122033 53 48 0.0 2.0 0.00 0.00 0.00 83 1005.5
20260505121518 53 74 0.0 1.0 0.00 0.00 0.00 83 1005.5
20260505121023 53 36 0.0 4.0 0.00 0.00 0.00 82 1005.5
20260505120528 53 51 0.0 5.0 0.00 0.00 0.00 82 1005.1
20260505120053 53 83 1.0 5.0 0.00 0.00 0.00 82 1004.9
20260505115517 53 46 0.0 10.0 0.00 0.00 0.00 82 1005.2
20260505115023 53 74 1.0 10.0 0.00 0.00 0.00 82 1004.9
20260505114548 53 55 0.0 3.0 0.00 0.00 0.00 82 1005.0
20260505114037 53 53 1.0 2.0 0.00 0.00 0.00 82 1005.1
20260505113522 53 53 0.0 2.0 0.00 0.00 0.00 82 1005.0
20260505113030 53 65 0.0 1.0 0.00 0.00 0.00 81 1005.0
20260505112556 53 105 0.0 1.0 0.00 0.00 0.00 81 1005.0
20260505112021 54 67 0.0 2.0 0.00 0.00 0.00 81 1005.3
20260505111547 54 59 0.0 2.0 0.00 0.00 0.00 81 1005.2
20260505111032 54 67 0.0 2.0 0.00 0.00 0.00 81 1005.2
20260505110519 54 344 0.0 9.0 0.00 0.00 0.00 81 1004.8
20260505102052 55 77 0.0 3.0 0.00 0.00 0.00 82 1004.7
20260505101517 56 61 0.0 6.0 0.00 0.00 0.00 81 1004.8
20260505101022 56 38 2.0 6.0 0.00 0.00 0.00 80 1004.9
20260505100528 57 55 0.0 2.0 0.00 0.00 0.00 80 1005.0
20260505100053 58 49 0.0 2.0 0.00 0.00 0.00 79 1005.3
20260505095537 58 61 0.0 2.0 0.00 0.00 0.00 78 1005.4
20260505095021 59 57 0.0 1.0 0.00 0.00 0.00 76 1005.5
20260505094525 60 90 0.0 9.0 0.00 0.00 0.00 75 1005.6
20260505094050 61 37 1.0 9.0 0.00 0.00 0.00 77 1005.3
20260505093535 62 53 0.0 2.0 0.00 0.00 0.00 76 1005.2
20260505093024 64 13 0.0 2.0 0.00 0.00 0.00 76 1004.8
20260505092548 64 54 0.0 2.0 0.00 0.00 0.00 76 1004.4
20260505092054 65 12 0.0 2.0 0.00 0.00 0.00 78 1004.3
20260505091536 65 119 0.0 2.0 0.00 0.00 0.00 78 1004.2
20260505091021 64 232 0.0 1.0 0.00 0.00 0.00 79 1004.1
20260505090526 64 273 0.0 1.0 0.00 0.00 0.00 80 1003.9
20260505090032 64 257 0.0 0.0 0.00 0.00 0.00 81 1003.6
20260505085536 64 236 0.0 0.0 0.00 0.00 0.00 82 1003.2
20260505085019 64 228 0.0 0.0 0.00 0.00 0.00 82 1002.5
20260505084523 64 221 0.0 0.0 0.00 0.00 0.00 81 1002.0
20260505084029 64 242 0.0 1.0 0.00 0.00 0.00 81 1001.9
20260505083534 64 204 0.0 1.0 0.00 0.00 0.00 80 1001.6
20260505083020 65 236 0.0 1.0 0.00 0.00 0.00 80 1001.9
20260505082530 65 241 0.0 3.0 0.00 0.00 0.00 79 1001.9
20260505082035 65 234 1.0 6.0 0.00 0.00 0.00 79 1001.8
20260505081520 65 211 1.0 4.0 0.00 0.00 0.00 79 1001.5
20260505081024 66 210 0.0 10.0 0.00 0.00 0.00 78 1001.8
20260505080530 66 195 1.0 10.0 0.00 0.00 0.00 76 1001.7
20260505080037 67 183 1.0 12.0 0.00 0.00 0.00 73 1001.6
20260505075521 67 185 1.0 12.0 0.00 0.00 0.00 72 1001.7
20260505075024 67 221 0.0 4.0 0.00 0.00 0.00 71 1002.2
20260505074530 67 182 0.0 4.0 0.00 0.00 0.00 70 1002.5
20260505074055 67 228 0.0 1.0 0.00 0.00 0.00 70 1002.5
20260505073539 67 185 0.0 1.0 0.00 0.00 0.00 70 1002.6
20260505073023 67 193 0.0 1.0 0.00 0.00 0.00 69 1002.7
20260505072532 67 223 0.0 1.0 0.00 0.00 0.00 69 1002.8
20260505072037 67 180 0.0 0.0 0.00 0.00 0.00 69 1003.0
20260505071524 67 206 0.0 0.0 0.00 0.00 0.00 69 1003.0
20260505071028 67 209 0.0 0.0 0.00 0.00 0.00 69 1003.1
20260505070534 67 191 0.0 0.0 0.00 0.00 0.00 68 1003.0
20260505070022 67 220 0.0 0.0 0.00 0.00 0.00 69 1003.0
20260505065528 67 199 0.0 0.0 0.00 0.00 0.00 68 1003.2
20260505065032 67 187 0.0 1.0 0.00 0.00 0.00 68 1003.0
20260505064536 67 192 0.0 1.0 0.00 0.00 0.00 68 1002.9
20260505064021 67 209 0.0 2.0 0.00 0.00 0.00 68 1002.9
20260505063531 67 207 0.0 2.0 0.00 0.00 0.00 68 1002.7
20260505063056 67 201 0.0 0.0 0.00 0.00 0.00 68 1002.8
20260505062520 67 215 0.0 2.0 0.00 0.00 0.00 68 1002.8
20260505062025 67 189 0.0 2.0 0.00 0.00 0.00 68 1002.8
20260505061531 67 200 0.0 0.0 0.00 0.00 0.00 68 1002.7
20260505061055 67 177 0.0 0.0 0.00 0.00 0.00 68 1002.7
20260505060518 67 213 0.0 0.0 0.00 0.00 0.00 68 1002.7
20260505060023 67 227 0.0 1.0 0.00 0.00 0.00 68 1002.8
20260505055527 67 231 0.0 1.0 0.00 0.00 0.00 68 1002.9
20260505055025 67 203 0.0 1.0 0.00 0.00 0.00 68 1002.8
20260505054527 67 185 0.0 1.0 0.00 0.00 0.00 68 1002.9
20260505054032 67 207 0.0 1.0 0.00 0.00 0.00 68 1003.0
20260505053520 67 199 0.0 0.0 0.00 0.00 0.00 68 1003.0
20260505053027 67 200 0.0 1.0 0.00 0.00 0.00 67 1003.1
20260505052531 67 192 0.0 1.0 0.00 0.00 0.00 67 1003.3
20260505052036 67 162 0.0 1.0 0.00 0.00 0.00 67 1003.3
20260505051521 67 192 0.0 0.0 0.00 0.00 0.00 68 1003.4
20260505051025 68 211 0.0 0.0 0.00 0.00 0.00 67 1003.2
20260505050530 68 201 0.0 0.0 0.00 0.00 0.00 67 1003.1
20260505041543 69 175 0.0 1.0 0.00 0.00 0.00 65 1003.3
20260505041027 69 153 0.0 0.0 0.00 0.00 0.00 64 1003.4
20260505040552 70 188 0.0 0.0 0.00 0.00 0.00 64 1003.6
20260505040036 70 163 0.0 0.0 0.00 0.00 0.00 63 1003.8
20260505035522 70 185 0.0 0.0 0.00 0.00 0.00 63 1003.8
20260505035026 70 194 0.0 0.0 0.00 0.00 0.00 62 1003.6
20260505034532 70 190 0.0 0.0 0.00 0.00 0.00 62 1003.5
20260505034037 71 231 0.0 8.0 0.00 0.00 0.00 62 1003.4
20260505033542 71 229 1.0 8.0 0.00 0.00 0.00 62 1003.6
20260505033045 71 223 0.0 3.0 0.00 0.00 0.00 61 1003.3
20260505032529 71 206 0.0 6.0 0.00 0.00 0.00 61 1003.3
20260505032055 71 222 1.0 9.0 0.00 0.00 0.00 60 1003.4
20260505031539 71 208 1.0 4.0 0.00 0.00 0.00 60 1003.3
20260505031028 72 227 1.0 5.0 0.00 0.00 0.00 60 1003.3
20260505030532 72 219 1.0 5.0 0.00 0.00 0.00 59 1003.2
20260505030018 72 213 0.0 9.0 0.00 0.00 0.00 59 1003.1
20260505025523 72 236 1.0 10.0 0.00 0.00 0.00 59 1003.2
20260505025029 72 222 2.0 8.0 0.00 0.00 0.00 59 1003.1
20260505024534 72 256 2.0 8.0 0.00 0.00 0.00 59 1003.1
20260505024040 73 190 0.0 4.0 0.00 0.00 0.00 59 1003.0
20260505023524 73 176 1.0 6.0 0.00 0.00 0.00 58 1002.9
20260505023029 73 205 1.0 6.0 0.00 0.00 0.00 58 1003.1
20260505022557 73 213 0.0 5.0 0.00 0.00 0.00 57 1003.0
20260505022020 73 199 1.0 5.0 0.00 0.00 0.00 57 1003.0
20260505021525 73 230 0.0 2.0 0.00 0.00 0.00 57 1003.1
20260505021035 73 239 0.0 4.0 0.00 0.00 0.00 57 1003.0
20260505020520 73 182 0.0 5.0 0.00 0.00 0.00 56 1002.6
20260505020047 73 174 0.0 5.0 0.00 0.00 0.00 56 1002.6
20260505015531 73 203 0.0 4.0 0.00 0.00 0.00 56 1002.5
20260505015056 74 229 0.0 2.0 0.00 0.00 0.00 56 1002.6
20260505014520 74 212 0.0 2.0 0.00 0.00 0.00 56 1002.6
20260505014026 74 204 0.0 1.0 0.00 0.00 0.00 55 1002.7
20260505013531 74 218 0.0 1.0 0.00 0.00 0.00 55 1002.6
20260505013036 74 220 0.0 1.0 0.00 0.00 0.00 54 1002.3
20260505012521 74 224 0.0 3.0 0.00 0.00 0.00 54 1002.3
20260505012027 75 214 0.0 6.0 0.00 0.00 0.00 54 1002.3
20260505011532 75 225 0.0 8.0 0.00 0.00 0.00 53 1002.3
20260505011020 75 188 0.0 8.0 0.00 0.00 0.00 52 1002.2
20260505010524 75 184 0.0 3.0 0.00 0.00 0.00 52 1002.2
20260505010029 76 246 0.0 1.0 0.00 0.00 0.00 52 1002.2
20260505005555 76 213 0.0 3.0 0.00 0.00 0.00 51 1002.0